Espace membre
ImprimablePdf
Liège, 16/05/2010, BEL - Urban Tour - Les 15km de Liège
Liste des rapports > 15km - Classement + Video
Recherche: Page: [1] 2
204 Entrées
 
Les réclamations ne sont plus acceptées, les résultats sont considérés comme définitifs.
RangNrNomAgeIOCEquipeTempsTkmMoy.ScrLocalité
1.603BALTS Didier Hubert45BEL56:563:48 15.815VISÉ
2.944BRAINDORGE? Eric48BELTDCH58:103:53 15.4811
3.81BUCKINX Etienne47BEL59:073:57 15.2315HERMÉE
4.670BLANCHY Gilles Nicolas46BELBRICO PLAN-IT59:474:00 15.0618OLNE
5.1030BROQUET Francis47BEL1:00:254:02 14.9023JODOIGNE
6.46BETHUME Bernard43BEL1:01:244:06 14.6629FLEMALLE
7.301JORIS Lionel40BEL1:01:544:08 14.5430GRIVEGNEE
8.359MARTIN Eric47BEL1:02:034:09 14.5133WANDRE
9.713SCIORRE Marc40BELINFRABEL1:02:174:10 14.4536ODEUR
10.945CHRISTODOULEAS Patrick46BELAVERO INSURANCE1:02:234:10 14.4337GRIVEGNEE
11.352MARGOULIES Yves47BEL1:02:244:10 14.4238LINCE - SPRIMONT
12.105COLBACK Eric42BELETHIAS RUNNING1:02:394:11 14.3739DOLEMBREUX
13.168DENDAL Didier47BEL1:02:414:11 14.3640LIÈGE
14.219GAZZOTTI Francois42BEL1:02:484:12 14.3342DALHEM
15.952D'HOEY Georges Anna49BEL1:03:464:16 14.1249CHAUDFONTAINE
16.594NICOLAS Francis42BEL1:04:104:17 14.0354
17.343MANCA Antonio40ITA1:04:124:17 14.0255HERSTAL
18.547VIATOUR Michaël40BEL1:04:154:17 14.0156FOSSES-LA-VILLE
19.483SALL Kandia40FRA1:04:204:18 13.9959CHÉNEE
20.650KERENS Philippe44BELSERUNNER1:04:234:18 13.9861FLÉMALLE
21.154DELBOVIER Marc41BELCHALLENGE HESBIGNON1:04:424:19 13.9169COUTHUIN
22.74BOVY Thierry47BELIFAPME1:04:424:19 13.9170VILLERS LE BOUILLET
23.641DEWEZ Yves Félix47BELRCA SPA1:04:544:20 13.8773THEUX
24.1052LORAUX Etienne47BELAXA RUNNING TEAM1:05:024:21 13.8474SART-DAMES-AVELINES
25.245HALLEUX Jean Marie40BELCHALLENGE LE JOUR1:05:044:21 13.8375HERVE
26.230GREGOV Daniel42BEL1:05:044:21 13.8376HERSTAL
27.912STICCA Nicola45HERSTAL JOGGING ET MARATH1:05:314:23 13.7480
28.601PARENT Pascal41BELRFCL1:05:334:23 13.7381LIEGE
29.974ESSABRI Ali46BEL1:05:374:23 13.7282GRACE-HOLLOGNE
30.381MICHOTTE Marc47KURISTO1:05:444:23 13.6984
31.20ARNOLDY Marc43BELSPF SÉCURITÉ SOCIALE1:06:054:25 13.6286BRUXELLES
32.916AGUZZI Rene46BEL1:06:104:25 13.6088
33.765BINOT Jean Louis461:06:154:25 13.5991
34.675BODSON Vincent Paul41BEL1:06:264:26 13.5595CHAUDFONTAINE
35.568WUIDARD Jean-Luc48BEL1:06:344:27 13.52101ALLEUR
36.47BEYER Bruno47BELFN HERSTAL1:07:224:30 13.36118
37.901HARRAB Abed43BEL1:07:504:32 13.27121
38.985DELL AQUILA Vito47BEL1:07:514:32 13.27122SOUMAGNE
39.564WILMET Abebe45BEL1:07:544:32 13.26123TINLOT
40.514SYNE Alain46BEL1:08:164:34 13.19132VILLERS-LE-BOUILLET
41.425PATTE Bruno49BELCAROTTES MELLETOISES1:08:184:34 13.18133MELLET
42.925NOCL Dominique42BELFCHA1:08:344:35 13.13138
43.976PONCELET Stephan44BEL1:08:354:35 13.13139
44.572BRUWIER Pierre Paul43BELZATOPEK.BE1:08:464:36 13.09141VISÉ
45.1018ANDREACOLA Vincent43BELZATOPEK.BE1:08:474:36 13.08142BRUSSEL (UKKEL)
46.763BARZIN Pascal451:08:574:36 13.05145
47.636THIRION Eric43BEL1:09:184:38 12.99148WANZE
48.229GRANA Bruno43BEL1:09:254:38 12.97150LIÈGE
49.242HADJIDIMITRIOU Stelio48BELTECHSPACE AERO1:09:414:39 12.92153HERSTAL
50.1012GENGOU Alain Raymond42BEL1:10:114:41 12.82160LIÈGE
51.1023FERONT Jean-Charles43BEL1:10:144:41 12.81162
52.961BECKERS Serge48BELSERUNNER1:10:154:41 12.81163LIEGE
53.1032SENTERRE Bernard45BEL1:10:174:42 12.81164
54.983CLAES Laurent42BEL1:10:324:43 12.76169NEUFCHATEAU (DALHEM)
55.302KAES Geert46BEL1:11:014:45 12.67175SPRIMONT
56.431PEPIN Jean Louis47BELBESEP1:11:254:46 12.60182
57.582CULOT Jean-Yves42BEL1:11:304:46 12.59184EMBOURG
58.493SCIVOLETTO Giovanni44BEL1:11:564:48 12.51191ANS
59.43BERTRAND Olivier40BELI SONS COOL1:11:594:48 12.50192
60.769ROZET Denis48BEL1:12:024:49 12.50195
61.614COLLIN Didier Georges45BEL1:12:024:49 12.50196VERVIERS
62.632VEITHEN Jean-Luc43BELJCPMF MALMEDY1:12:064:49 12.48198MALMEY
63.678LAURENT André47BEL1:12:074:49 12.48199HEUSY
64.746COX Iuan441:12:094:49 12.48201
65.931GILIS Didier46BEL1:12:134:49 12.46202SERAING
66.586DELIRE Alain43BEL1:12:154:49 12.46203AMAY
67.424PATERNOTTE Fabrice41BEL1:12:264:50 12.43206LABUISSIÈRE
68.1093BASZEZYNSKI Marc48BEL1:12:504:52 12.36210GRIVEGNÉE
69.1031THEUNISSEN Bertrand481:12:554:52 12.34215
70.903GIANFOLCARO Antonio42BEL1:13:004:52 12.33218SERAING
71.237GRZESINSKI Bernard49BEL1:13:084:53 12.31221FLEMALLE
72.1056KOCH Pascal41BEL1:13:134:53 12.29226
73.1070DIAFERIA Giuseppe491:13:134:53 12.29228
74.31BECKERS Marc46BEL1:13:174:54 12.28231GRIVEGNÉE
75.710GEERTS Jacques43BEL1:13:184:54 12.28232
76.28BAUTE Benoit40BEL1:13:184:54 12.28233HEUSY
77.434PERRIN Jean-Jacques44BELRUNNING ETHIAS1:13:184:54 12.28234VISE
78.272HOUBEN Jerry45BEL1:13:244:54 12.26239NANDRIN
79.648TETE EN L'AIR Simon40BEL1:13:264:54 12.26240MALMEDY
80.714AGRLOF Thanas45BEL1:13:304:54 12.25241
81.520THEUNISSEN Claude48BEL1:13:314:55 12.24242NEUPRÉ
82.598ALBERT Michel49BELRONVAU1:13:494:56 12.19248LIERNU
83.475ROMOLI Jean-Pierre45BEL1:13:494:56 12.19249BONCELLES
84.910NORMAND Daniel49BELJCCS1:13:564:56 12.17253RIENNE
85.585POSTAL Christian41BEL1:13:584:56 12.17254FIZE-FONTAINE
86.304KELLENS Michel43BEL1:13:594:56 12.17255LIEGE
87.619DEFAWEUX Tete En L'Air49BEL1:14:024:57 12.16257
88.227GOOSSENS Bernard40BEL1:14:024:57 12.16258BEAUFAYS
89.990BOSSON Denis43BEL1:14:084:57 12.14263
90.602REGIBEAU Georges47BEL1:14:104:57 12.13266
91.1016GANTOIS Gerald43BEL1:14:144:57 12.12269MOMALLE
92.147DEFAUWES Benoit42BEL1:14:244:58 12.10275WARSAGE
93.951DELLICOUR Vincent41BEL1:14:444:59 12.04282LIEGE
94.610HANSSEN Roland44BELJCPMF1:14:465:00 12.04283WARSAGE
95.428PENAY Eric41BELCOUREURSCÉLESTES1:14:465:00 12.04284LIÈGE
96.387MONFORT Luc46BEL1:15:135:01 11.97298RELOUX
97.560WILDERIANE Pierre42BEL1:15:385:03 11.90304LIÈGE
98.751DE SMEDT X401:15:555:04 11.86312
99.605STABEL Philippe Fernand42BEL1:16:205:06 11.79320DISON
100.470RIGAUX Philippe40BEL1:16:245:06 11.78322LIEGE
101.453QUENON Denis44CHE1:16:265:06 11.78323LAUSANNE
102.704HERVE Luc44BEL1:16:485:08 11.72327
103.460RAUW Olivier45BEL1:16:525:08 11.71331JUPILLE
104.663DEROONY??? Tete En L'Air43BEL1:17:235:10 11.63340
105.454QUEVRIN Alan41BEL1:17:255:10 11.63341VILLERS LE TEMPLE
106.40BERTIER Emmanuel42BELI SONS COOL1:17:425:11 11.58347
107.1055MUNSTER Philippe49BEL1:17:445:11 11.58348LIÈGE
108.405NISOL Alain48BELFN HERSTAL1:18:025:13 11.53352
109.87CARLIER Stephane49KURISTO1:18:055:13 11.53353
110.225GOFFIN Denis46BEL1:18:175:14 11.50357OREYE
111.356MARQUES ALVES Carlos48PRT1:18:395:15 11.44369ESNEUX
112.455QUINTILIANI Walter40ITA1:18:465:16 11.43375SERAING
113.173DERWAEL Alain41BELCAP NRB1:18:535:16 11.41377BONCELLES
114.462REMY Roger48BEL1:18:555:16 11.41380NADRIN
115.474RODARO Patrick42BEL1:19:095:17 11.37387HERSTAL
116.739HENRICHRANN Olivier451:19:135:17 11.36389
117.187DOSSOGNE Gerson46BEL1:19:165:18 11.35390OUGREE
118.349MARECHAL David44BEL1:19:465:20 11.28402GRIVEGNÉE
119.246HARDY Alain40BEL1:20:295:22 11.18416LOUVEIGNE
120.226GOFFIN Valère47BEL1:20:385:23 11.16421CEREXHE-HEUSEUX
121.577BAUDUIN Didier43BEL1:20:495:24 11.14423UCCLE
122.1049BRUYERE Bernard47BEL1:21:055:25 11.10429LIEGE
123.199DUBUISSON Philippe43BEL1:21:155:25 11.08435AIX-SUR-CLOIE
124.44BERTRAND Patrick40BEL1:21:235:26 11.06440VIEMME
125.615VAN KERCKHOVEN Xavier43BELAMC1:21:355:27 11.03445
126.467REYNKENS FLEBUS Philippe45BEL1:21:355:27 11.03446FLEMALLE
127.695PEPPEN Nicolas45BELLE JOUR1:21:395:27 11.02450
128.258HENDRICE Gilles42BEL1:21:575:28 10.98454CHAUDFONTAINE
129.252HAVAUX Pierre47BEL1:22:025:29 10.97456BRUXELLES
130.1002COUNET Christian49BEL1:22:045:29 10.97457
131.469RIES Olivier45LUX1:22:245:30 10.92463BRUXELLES
132.133DE BARSY Bernard46BEL1:22:295:30 10.91464WILTZ
133.907BONINI Hubert49BEL1:22:305:30 10.91465HERSTAL
134.355MARLET Pierre47BEL1:22:355:31 10.90467BRUXELLES
135.1083BERNARD Eric49BEL1:22:375:31 10.90468LIEGE
136.165DEMOULIN Jipi43BEL1:22:385:31 10.89469NOVILLE
137.764BOVY Philippe431:22:465:32 10.87473
138.68BOUQUIAUX Olivier45BELBESEP1:22:545:32 10.86475
139.360MARTIN Gerard47BEL1:23:045:33 10.84481BEAUFAYS
140.728LENOTTI Joseph40BEL1:23:295:34 10.78491
141.362MARTIN Joseph42BELBESEP1:24:095:37 10.70502
142.914COLLETTE Alain46BEL1:24:175:38 10.68505
143.1048JAMAR DE BOLSÉE Arnaud44BEL1:24:475:40 10.62511LIÈGE
144.992CHARLIER Philippe471:25:125:41 10.56520
145.1046DAOUST Yves49BEL1:25:155:41 10.56522SERAING
146.488SCHMETZ Philap49BELLIGNE 69 CÉLESTES1:25:195:42 10.55524AYENEUX
147.131DAUBREZ Marc43BEL1:25:315:43 10.53528LIEGE
148.69BOURGEOIS Alain48BEL1:25:495:44 10.49532WANZE
149.16ANCKAERT Jules49BELURBANTOUR CHARLEROI1:26:185:46 10.43541MONTIGNY-LE-TILLEUL
150.185DOME Eugene48BEL1:26:315:47 10.40544PLOMBIERES
151.773FRAINEUX Yannik43BELRFCL1:26:415:47 10.38547
152.276HUMBLET Guy40BEL1:26:415:47 10.38548AWANS
153.346MANIA Philippe47BEL1:26:585:48 10.35551CHÊNEE
154.177DEWIL Jean48BEL1:27:335:51 10.28559GRIVEGNEE
155.608HEUSE Vincent40BEL1:27:425:51 10.26565XHENDELESSE
156.607DISTRAIT Tete En L'Air45BELLE JOUR1:27:575:52 10.23575HODY
157.735DUBOIS Bernard451:28:065:53 10.22580
158.338MAKA Roger49BEL1:28:245:54 10.18584OREYE
159.243HALKIN Jean-Michel40BELFN HERSTAL1:29:125:57 10.09599
160.273HOUGRAND Alain46BEL1:29:335:59 10.05606DEIGNE
161.904LAHAYE Daniel48BEL1:29:435:59 10.03613ANS
162.128DAMAN Francois45BELECONOCOM1:29:496:00 10.02614LIEGE
163.1017HUBERT Laurence40BELZATOPEK.BE1:30:186:02 9.97627BRUSSEL (UKKEL)
164.688DEMONCEAU Jean-Claude45BEL1:30:226:02 9.96629
165.392MORRONE Romano44BEL1:30:246:02 9.96631LIÈGE
166.478RUTH Adelin48BEL1:30:276:02 9.95635LIÈGE
167.512SURAY Philippe49BEL1:30:276:02 9.95636MONTIGNY LE TILLEUL
168.969BARONHEID Rene49BEL1:30:336:03 9.94637MALMEDY
169.494SERON Serge45BEL1:31:036:05 9.88645LIÈGE
170.266HOFFMANN Jean-Luc46BEL1:31:066:05 9.88649LIÈGE
171.724BODARWE Stephane43BEL1:31:146:05 9.86650
172.583DELVAUX Frank49BEL1:31:236:06 9.85652HERSTAL
173.573DISTRAIT Tete En L'Air45BEL1:31:266:06 9.84654
174.1038DEBATTY Hugues41BEL1:31:526:08 9.80668SPA
175.54BOCLINVILLE Didier43BEL1:31:556:08 9.79669HODY
176.288JADIN Lucien46BEL1:31:576:08 9.79670GRIVEGNEE
177.690VANDERHEYDEN Alain401:33:236:14 9.64690
178.201ELMEKKI Mustapha42BEL1:33:456:15 9.60697ANS
179.126CWIKOWSKI Marc48BEL1:33:526:16 9.59699SAIVE
180.1085BERTHO Pascal Guy46BEL1:34:056:17 9.57702OUPEYE
181.153DELANGRE Baudouin45BEL1:34:086:17 9.56703LIÈGE
182.741BOTTIN Pierre481:34:166:18 9.55705
183.186DONADI Frédéric40BELCOURIR ENSEMBLE LIÈGE1:35:206:22 9.44719TONGRES
184.67BOUILLON Thierry44BEL1:36:496:28 9.30740CHENEE
185.933LHEUREUX Pierre-Marie40BEL1:36:576:28 9.28742
186.490SCHUMACHER Jean-Marc44BEL1:37:576:32 9.19748ANS
187.271HOUBEN Jeremy45BEL1:38:036:33 9.18750NANDRIN
188.687GEUZAINE Joseph44BEL1:39:416:39 9.03759
189.48BICA René48BEL1:39:496:40 9.02760WARSAGE
190.1026CORNETTE Christian49BEL1:40:256:42 8.96770
191.263HERZET Jean-Manuel46BEL1:40:426:43 8.94773AYENEUX
192.85CALAY Philippe42BEL1:41:236:46 8.88780HERMÉE
193.261HERMAL Laetitia44BEL1:41:436:47 8.85784LIÈGE
194.260HEREMANS Frederic46BEL1:44:226:58 8.62806AWANS
195.1024MICHIELS Michel49BEL1:45:387:03 8.52811SERAING
196.468RICHARD Pascal48BEL1:47:357:11 8.37824VOTTEM
197.1062DONNAY Boris441:48:057:13 8.33830
DNF: abandon; DSQ: disqualifié; Vitesse en km/h